DW2363 Weather Reports


Display with metric or nautical units.
time (UTC)temp
F
wind
direction
speed
MPH
gust
MPH
rain 1hr
in
rain 24hr
in
rain mn
in
humidity
%
barometer
mb
20260510095752 67 57 3.0 5.0 0.00 0.00 0.00 62 1012.4
20260510095251 67 82 2.0 3.0 0.00 0.00 0.00 65 1012.5
20260510094748 66 82 2.0 3.0 0.00 0.00 0.00 68 1012.5
20260510094254 66 82 1.0 4.0 0.00 0.00 0.00 69 1012.5
20260510094248 66 82 1.0 3.0 0.00 0.00 0.00 68 1012.5
20260510093248 66 82 2.0 4.0 0.00 0.00 0.00 69 1012.5
20260510092748 66 82 2.0 4.0 0.00 0.00 0.00 67 1012.5
20260510092247 67 82 3.0 4.0 0.00 0.00 0.00 64 1012.5
20260510091753 67 82 3.0 5.0 0.00 0.00 0.00 62 1012.5
20260510091747 67 82 3.0 5.0 0.00 0.00 0.00 65 1012.5
20260510090747 67 82 4.0 7.0 0.00 0.00 0.00 59 1012.6
20260510090253 67 72 5.0 7.0 0.00 0.00 0.00 59 1012.5
20260510090247 67 81 5.0 7.0 0.00 0.00 0.00 56 1012.5
20260510085855 67 68 5.0 7.0 0.00 0.00 0.00 62 1012.5
20260510085354 67 78 4.0 7.0 0.00 0.00 0.00 61 1012.5
20260510084253 67 89 3.0 6.0 0.00 0.00 0.00 57 1012.5
20260510084248 67 63 4.0 7.0 0.00 0.00 0.00 61 1012.5
20260510083248 67 85 4.0 6.0 0.00 0.00 0.00 60 1012.6
20260510082747 67 59 4.0 7.0 0.00 0.00 0.00 63 1012.6
20260510082247 67 61 4.0 7.0 0.00 0.00 0.00 57 1012.7
20260510081753 67 74 5.0 7.0 0.00 0.00 0.00 59 1012.8
20260510081747 67 84 5.0 7.0 0.00 0.00 0.00 59 1012.7
20260510080751 67 64 5.0 6.0 0.00 0.00 0.00 59 1012.8
20260510080745 67 80 5.0 7.0 0.00 0.00 0.00 61 1012.8
20260510075746 67 69 5.0 6.0 0.00 0.00 0.00 60 1012.9
20260510075243 66 55 5.0 6.0 0.00 0.00 0.00 60 1013.0
20260510074743 66 41 5.0 6.0 0.00 0.00 0.00 63 1013.0
20260510074241 66 61 4.0 7.0 0.00 0.00 0.00 62 1013.0
20260510073741 66 317 4.0 7.0 0.00 0.00 0.00 63 1013.0
20260510073241 66 10 5.0 7.0 0.00 0.00 0.00 66 1013.2
20260510072740 66 24 5.0 6.0 0.00 0.00 0.00 65 1013.2
20260510072241 66 31 5.0 6.0 0.00 0.00 0.00 67 1013.2
20260510071742 66 46 5.0 6.0 0.00 0.00 0.00 64 1013.1
20260510071242 66 51 5.0 7.0 0.00 0.00 0.00 66 1013.1
20260510070741 66 49 5.0 7.0 0.00 0.00 0.00 67 1013.2
20260510070240 66 49 5.0 7.0 0.00 0.00 0.00 71 1013.2
20260510065739 66 53 5.0 6.0 0.00 0.00 0.00 70 1013.2
20260510065239 66 50 6.0 8.0 0.00 0.00 0.00 70 1013.2
20260510064739 66 41 6.0 8.0 0.00 0.00 0.00 69 1013.4
20260510064239 66 43 6.0 7.0 0.00 0.00 0.00 73 1013.2
20260510063739 66 43 6.0 7.0 0.00 0.00 0.00 72 1013.2
20260510063243 66 43 6.0 7.0 0.00 0.00 0.00 72 1013.2
20260510063239 66 43 6.0 7.0 0.00 0.00 0.00 72 1013.2
20260510062237 66 43 6.0 7.0 0.00 0.00 0.00 72 1013.2
20260510061735 66 43 6.0 7.0 0.00 0.00 0.00 72 1013.2
20260510061235 66 43 6.0 7.0 0.00 0.00 0.00 73 1013.2
20260510060735 66 43 5.0 6.0 0.00 0.00 0.00 73 1013.2
20260510060232 66 43 4.0 6.0 0.00 0.00 0.00 74 1013.2
20260510055737 65 28 4.0 5.0 0.00 0.00 0.00 73 1013.4
20260510055732 65 28 4.0 5.0 0.00 0.00 0.00 72 1013.4
20260510054732 65 28 4.0 5.0 0.00 0.00 0.00 73 1013.4
20260510054235 66 28 4.0 5.0 0.00 0.00 0.00 73 1013.4
20260510054231 66 28 3.0 5.0 0.00 0.00 0.00 73 1013.4
20260510053231 66 28 3.0 5.0 0.00 0.00 0.00 73 1013.5
20260510052730 66 28 3.0 4.0 0.00 0.00 0.00 72 1013.5
20260510052231 66 28 3.0 4.0 0.00 0.00 0.00 72 1013.5
20260510051731 67 28 3.0 5.0 0.00 0.00 0.00 73 1013.5
20260510051229 67 28 3.0 5.0 0.00 0.00 0.00 73 1013.5
20260510050729 66 28 4.0 5.0 0.00 0.00 0.00 72 1013.5
20260510050228 66 28 4.0 5.0 0.00 0.00 0.00 72 1013.5
20260510045728 67 40 3.0 5.0 0.00 0.00 0.00 72 1013.5
20260510045230 67 40 3.0 5.0 0.00 0.00 0.00 73 1013.5
20260510044731 67 40 4.0 5.0 0.00 0.00 0.00 72 1013.4
20260510044727 67 40 4.0 6.0 0.00 0.00 0.00 72 1013.4
20260510044334 67 40 4.0 6.0 0.00 0.00 0.00 72 1013.4
20260510043834 67 47 3.0 5.0 0.00 0.00 0.00 71 1013.4
20260510043334 68 47 2.0 3.0 0.00 0.00 0.00 71 1013.2
20260510042227 68 70 3.0 5.0 0.00 0.00 0.00 70 1013.4
20260510041727 69 70 4.0 5.0 0.00 0.00 0.00 70 1013.2
20260510041226 69 70 3.0 5.0 0.00 0.00 0.00 70 1013.0
20260510040726 69 61 3.0 5.0 0.00 0.00 0.00 70 1013.0
20260510040226 69 76 2.0 5.0 0.00 0.00 0.00 69 1013.0
20260510035726 69 100 3.0 5.0 0.00 0.00 0.00 69 1013.0
20260510035226 69 69 3.0 5.0 0.00 0.00 0.00 69 1012.9
20260510034726 69 72 3.0 6.0 0.00 0.00 0.00 69 1012.9
20260510034228 69 84 3.0 6.0 0.00 0.00 0.00 68 1013.0
20260510033726 69 86 4.0 7.0 0.00 0.00 0.00 69 1012.9
20260510033226 69 61 5.0 8.0 0.00 0.00 0.00 69 1012.8
20260510032732 69 73 3.0 7.0 0.00 0.00 0.00 69 1012.7
20260510032726 69 73 5.0 8.0 0.00 0.00 0.00 69 1012.8
20260510031726 69 62 4.0 7.0 0.00 0.00 0.00 68 1012.6
20260510031226 70 69 5.0 7.0 0.00 0.00 0.00 68 1012.5
20260510030726 70 78 3.0 5.0 0.00 0.00 0.00 68 1012.5
20260510030226 70 78 3.0 5.0 0.00 0.00 0.00 68 1012.4
20260510025729 70 78 3.0 5.0 0.00 0.00 0.00 68 1012.3
20260510025725 70 75 2.0 5.0 0.00 0.00 0.00 67 1012.3
20260510024724 70 48 2.0 4.0 0.00 0.00 0.00 67 1012.2
20260510024225 71 69 2.0 4.0 0.00 0.00 0.00 66 1012.2
20260510023724 71 69 2.0 4.0 0.00 0.00 0.00 66 1012.3
20260510023222 72 69 2.0 4.0 0.00 0.00 0.00 65 1012.2
20260510022720 72 5 2.0 3.0 0.00 0.00 0.00 65 1012.3
20260510022220 72 241 1.0 3.0 0.00 0.00 0.00 64 1012.2
20260510021724 73 229 0.0 1.0 0.00 0.00 0.00 64 1012.2
20260510021720 73 229 0.0 1.0 0.00 0.00 0.00 64 1012.3
20260510020724 73 229 0.0 4.0 0.00 0.00 0.00 64 1012.2
20260510020720 73 229 0.0 1.0 0.00 0.00 0.00 64 1012.2
20260510015725 73 225 1.0 4.0 0.00 0.00 0.00 63 1012.2
20260510015720 73 229 1.0 4.0 0.00 0.00 0.00 62 1012.2
20260510014720 73 261 1.0 4.0 0.00 0.00 0.00 63 1012.2
20260510014224 72 228 2.0 3.0 0.00 0.00 0.00 63 1012.2
20260510014220 73 228 1.0 3.0 0.00 0.00 0.00 62 1012.2
20260510013217 72 242 2.0 4.0 0.00 0.00 0.00 63 1012.2
20260510012719 72 227 3.0 5.0 0.00 0.00 0.00 63 1012.1
20260510012218 72 200 3.0 5.0 0.00 0.00 0.00 63 1012.1
20260510011718 72 223 3.0 5.0 0.00 0.00 0.00 63 1012.1
20260510011217 72 198 3.0 7.0 0.00 0.00 0.00 64 1012.1
20260510010722 73 214 3.0 7.0 0.00 0.00 0.00 64 1012.1
20260510010718 72 200 3.0 7.0 0.00 0.00 0.00 64 1012.1
20260510005718 72 204 3.0 7.0 0.00 0.00 0.00 64 1012.1
20260510005222 72 225 4.0 8.0 0.00 0.00 0.00 65 1012.1
20260510005217 72 212 4.0 8.0 0.00 0.00 0.00 65 1012.1
20260510004216 72 219 4.0 7.0 0.00 0.00 0.00 66 1012.1
20260510003716 71 205 5.0 8.0 0.00 0.00 0.00 65 1012.1
20260510003216 71 221 5.0 8.0 0.00 0.00 0.00 65 1012.1
20260510002716 71 237 5.0 7.0 0.00 0.00 0.00 66 1012.2
20260510002216 71 246 5.0 8.0 0.00 0.00 0.00 65 1012.1
20260510001716 71 229 5.0 8.0 0.00 0.00 0.00 66 1012.2
20260510001216 71 234 5.0 8.0 0.00 0.00 0.00 65 1012.1
20260510000716 71 236 5.0 7.0 0.00 0.00 0.00 64 1012.1
20260510000216 71 219 5.0 7.0 0.00 0.00 0.00 65 1012.1
20260509235716 72 246 5.0 8.0 0.00 0.00 0.00 64 1012.2
20260509235220 72 232 5.0 8.0 0.00 0.00 0.00 64 1012.2
20260509235216 71 244 5.0 8.0 0.00 0.00 0.00 64 1012.3
20260509234215 72 225 5.0 7.0 0.00 0.00 0.00 64 1012.3
20260509233716 73 212 4.0 7.0 0.00 0.00 0.00 62 1012.3
20260509233215 73 231 4.0 7.0 0.00 0.00 0.00 64 1012.3
20260509232715 73 246 4.0 7.0 0.00 0.00 0.00 63 1012.3
20260509232216 73 225 4.0 7.0 0.00 0.00 0.00 63 1012.3
20260509231719 73 216 4.0 7.0 0.00 0.00 0.00 62 1012.4
20260509231715 74 206 3.0 6.0 0.00 0.00 0.00 62 1012.3
20260509231325 74 217 2.0 5.0 0.00 0.00 0.00 63 1012.3
20260509230217 74 225 2.0 5.0 0.00 0.00 0.00 63 1012.3
20260509230213 74 223 2.0 5.0 0.00 0.00 0.00 63 1012.3
20260509225211 74 228 2.0 7.0 0.00 0.00 0.00 64 1012.4
20260509224711 73 240 3.0 7.0 0.00 0.00 0.00 65 1012.4
20260509224211 73 237 3.0 6.0 0.00 0.00 0.00 65 1012.5
20260509223711 74 240 3.0 6.0 0.00 0.00 0.00 63 1012.5
20260509223208 74 225 3.0 6.0 0.00 0.00 0.00 64 1012.6
20260509222713 74 186 2.0 6.0 0.00 0.00 0.00 63 1012.6
20260509222707 74 189 3.0 6.0 0.00 0.00 0.00 63 1012.6
20260509221706 74 194 2.0 5.0 0.00 0.00 0.00 64 1012.6
20260509221208 74 221 2.0 6.0 0.00 0.00 0.00 63 1012.7
20260509221204 74 205 2.0 6.0 0.00 0.00 0.00 63 1012.8
20260509220203 74 189 2.0 5.0 0.00 0.00 0.00 62 1012.9
20260509215704 74 155 2.0 6.0 0.00 0.00 0.00 64 1012.9
20260509215204 73 189 2.0 6.0 0.00 0.00 0.00 61 1012.9
20260509214704 73 192 2.0 5.0 0.00 0.00 0.00 61 1012.9
20260509214203 74 213 2.0 5.0 0.00 0.00 0.00 62 1013.0
20260509213703 75 177 2.0 5.0 0.00 0.00 0.00 63 1013.1
20260509213204 75 183 2.0 6.0 0.00 0.00 0.00 62 1013.1
20260509212710 75 226 2.0 5.0 0.00 0.00 0.00 63 1013.2
20260509212704 75 161 2.0 6.0 0.00 0.00 0.00 63 1013.1
20260509211704 74 188 2.0 5.0 0.00 0.00 0.00 63 1013.2
20260509211203 74 155 2.0 5.0 0.00 0.00 0.00 64 1013.4
20260509210703 74 168 2.0 5.0 0.00 0.00 0.00 63 1013.4
20260509210203 75 131 2.0 6.0 0.00 0.00 0.00 62 1013.4
20260509205704 75 184 1.0 6.0 0.00 0.00 0.00 63 1013.4
20260509205204 75 136 1.0 6.0 0.00 0.00 0.00 62 1013.5
20260509204704 75 164 2.0 7.0 0.00 0.00 0.00 64 1013.4
20260509204211 74 128 1.0 9.0 0.00 0.00 0.00 65 1013.5
20260509204204 74 115 1.0 7.0 0.00 0.00 0.00 66 1013.5
20260509203203 74 172 2.0 9.0 0.00 0.00 0.00 65 1013.4
20260509202704 74 191 2.0 10.0 0.00 0.00 0.00 65 1013.5
20260509202203 74 188 2.0 10.0 0.00 0.00 0.00 65 1013.5
20260509201704 74 215 1.0 6.0 0.00 0.00 0.00 66 1013.5
20260509201204 74 167 1.0 4.0 0.00 0.00 0.00 66 1013.6
20260509200706 73 130 1.0 4.0 0.00 0.00 0.00 66 1013.5
20260509200702 74 160 1.0 4.0 0.00 0.00 0.00 64 1013.5
20260509195701 73 239 1.0 7.0 0.00 0.00 0.00 63 1013.6
20260509195202 74 126 2.0 7.0 0.00 0.00 0.00 66 1013.6
20260509194701 73 218 2.0 7.0 0.00 0.00 0.00 66 1013.6
20260509194201 73 157 2.0 7.0 0.00 0.00 0.00 68 1013.6
20260509193702 73 169 2.0 6.0 0.00 0.00 0.00 67 1013.7
20260509193206 73 75 2.0 7.0 0.00 0.00 0.00 68 1013.7
20260509193202 73 153 1.0 6.0 0.00 0.00 0.00 68 1013.7
20260509192159 73 136 3.0 10.0 0.00 0.00 0.00 67 1013.7
20260509191659 74 105 3.0 10.0 0.00 0.00 0.00 67 1013.7
20260509191203 73 20 3.0 8.0 0.00 0.00 0.00 68 1013.8
20260509191159 73 30 3.0 6.0 0.00 0.00 0.00 67 1013.8
20260509190159 73 29 3.0 8.0 0.00 0.00 0.00 68 1013.9
20260509185705 72 34 3.0 9.0 0.00 0.00 0.00 69 1013.8
20260509185659 73 34 4.0 9.0 0.00 0.00 0.00 68 1013.8
20260509185159 72 64 4.0 9.0 0.00 0.00 0.00 68 1013.8
20260509184200 72 355 3.0 9.0 0.00 0.00 0.00 68 1014.0
20260509183658 71 74 3.0 8.0 0.00 0.00 0.00 69 1013.9
20260509183157 70 78 3.0 7.0 0.00 0.00 0.00 70 1014.0
20260509182656 70 47 3.0 8.0 0.00 0.00 0.00 70 1013.9
20260509182201 70 348 3.0 8.0 0.00 0.00 0.00 70 1014.0
20260509182157 71 12 3.0 8.0 0.00 0.00 0.00 70 1013.9
20260509181201 71 47 2.0 6.0 0.00 0.00 0.00 69 1014.0
20260509181157 71 21 2.0 6.0 0.00 0.00 0.00 70 1014.0
20260509180202 71 52 2.0 7.0 0.00 0.00 0.00 71 1014.1
20260509180157 71 40 2.0 5.0 0.00 0.00 0.00 71 1014.0
20260509175158 70 80 2.0 7.0 0.00 0.00 0.00 72 1014.0
20260509174701 69 68 3.0 6.0 0.00 0.00 0.00 73 1014.0
20260509174657 70 103 2.0 5.0 0.00 0.00 0.00 73 1014.0
20260509173655 68 24 4.0 6.0 0.00 0.00 0.00 73 1014.1
20260509173200 69 46 4.0 7.0 0.00 0.00 0.00 71 1013.9
20260509173155 68 20 4.0 7.0 0.00 0.00 0.00 73 1014.0
20260509172155 69 59 3.0 6.0 0.00 0.00 0.00 70 1013.9
20260509171656 68 59 3.0 6.0 0.00 0.00 0.00 70 1013.8
20260509171153 67 52 4.0 6.0 0.00 0.00 0.00 71 1013.8
20260509170654 68 43 4.0 6.0 0.00 0.00 0.00 71 1013.7
20260509170153 69 41 3.0 6.0 0.00 0.00 0.00 65 1013.7
20260509165653 69 28 2.0 6.0 0.00 0.00 0.00 62 1013.6
20260509165153 69 57 2.0 5.0 0.00 0.00 0.00 65 1013.6
20260509164652 69 34 2.0 5.0 0.00 0.00 0.00 64 1013.6
20260509164153 69 40 2.0 5.0 0.00 0.00 0.00 67 1013.6
20260509163653 69 16 2.0 5.0 0.00 0.00 0.00 66 1013.6
20260509163152 69 51 2.0 5.0 0.00 0.00 0.00 68 1013.6
20260509162652 69 51 3.0 5.0 0.00 0.00 0.00 69 1013.6
20260509162153 69 28 3.0 6.0 0.00 0.00 0.00 63 1013.6
20260509161653 70 55 3.0 6.0 0.00 0.00 0.00 65 1013.6
20260509161153 69 78 3.0 6.0 0.00 0.00 0.00 67 1013.7
20260509160653 69 77 2.0 6.0 0.00 0.00 0.00 66 1013.6
20260509160152 69 38 3.0 6.0 0.00 0.00 0.00 62 1013.7
20260509155655 69 34 3.0 6.0 0.00 0.00 0.00 62 1013.6
20260509155651 69 47 3.0 6.0 0.00 0.00 0.00 62 1013.6
20260509154648 69 55 3.0 6.0 0.00 0.00 0.00 64 1013.7
20260509154149 68 96 3.0 6.0 0.00 0.00 0.00 64 1013.7
20260509153649 69 96 3.0 7.0 0.00 0.00 0.00 65 1013.7
20260509153151 68 95 3.0 7.0 0.00 0.00 0.00 63 1013.6
20260509153147 68 102 2.0 5.0 0.00 0.00 0.00 66 1013.7
20260509152152 67 49 3.0 5.0 0.00 0.00 0.00 65 1013.6
20260509152147 67 55 3.0 5.0 0.00 0.00 0.00 62 1013.7
20260509151147 67 42 3.0 5.0 0.00 0.00 0.00 62 1013.5
20260509150647 67 19 3.0 5.0 0.00 0.00 0.00 63 1013.6
20260509150146 67 34 3.0 6.0 0.00 0.00 0.00 66 1013.6
20260509145647 66 39 4.0 6.0 0.00 0.00 0.00 65 1013.6
20260509145146 65 53 4.0 6.0 0.00 0.00 0.00 67 1013.6
20260509144646 65 32 4.0 9.0 0.00 0.00 0.00 67 1013.6
20260509144147 65 37 5.0 9.0 0.00 0.00 0.00 68 1013.6
20260509143647 65 32 6.0 9.0 0.00 0.00 0.00 68 1013.6
20260509143146 64 16 7.0 9.0 0.00 0.00 0.00 69 1013.6
20260509142647 65 11 6.0 9.0 0.00 0.00 0.00 68 1013.6
20260509142146 65 0 5.0 9.0 0.00 0.00 0.00 69 1013.5
20260509141646 65 19 6.0 9.0 0.00 0.00 0.00 68 1013.5
20260509141147 65 24 5.0 8.0 0.00 0.00 0.00 69 1013.4
20260509140647 65 26 5.0 8.0 0.00 0.00 0.00 69 1013.4
20260509140146 64 26 6.0 8.0 0.00 0.00 0.00 70 1013.4
20260509135646 64 36 6.0 9.0 0.00 0.00 0.00 69 1013.4
20260509135146 64 31 6.0 9.0 0.00 0.00 0.00 71 1013.4
20260509134646 64 24 6.0 10.0 0.00 0.00 0.00 70 1013.4
20260509134146 63 36 6.0 10.0 0.00 0.00 0.00 73 1013.4
20260509133646 63 28 7.0 11.0 0.00 0.00 0.00 73 1013.2
20260509133146 63 37 8.0 11.0 0.00 0.00 0.00 72 1013.4
20260509132644 63 49 9.0 11.0 0.00 0.00 0.00 74 1013.2
20260509132253 62 30 9.0 11.0 0.00 0.00 0.00 76 1013.0
20260509132149 62 40 10.0 12.0 0.00 0.00 0.00 76 1013.0
20260509132145 62 36 10.0 12.0 0.00 0.00 0.00 75 1013.1
20260509130645 62 32 8.0 11.0 0.00 0.00 0.00 75 1013.0
20260509130145 62 11 9.0 12.0 0.00 0.00 0.00 73 1013.0
20260509125644 63 17 9.0 12.0 0.00 0.00 0.00 72 1013.0
20260509125142 63 49 8.0 11.0 0.00 0.00 0.00 72 1012.9
20260509124642 62 61 7.0 12.0 0.00 0.00 0.00 73 1012.9
20260509124142 62 45 7.0 12.0 0.00 0.00 0.00 75 1012.9
20260509123647 62 58 9.0 12.0 0.00 0.00 0.00 75 1012.9
20260509123643 62 43 9.0 12.0 0.00 0.00 0.00 76 1012.9
20260509123249 62 59 10.0 13.0 0.00 0.00 0.00 78 1012.9
20260509122140 62 51 10.0 13.0 0.00 0.00 0.00 78 1012.8
20260509121639 62 81 11.0 12.0 0.00 0.00 0.00 78 1012.8
20260509121138 62 105 10.0 12.0 0.00 0.00 0.00 79 1012.7
20260509120638 61 99 10.0 12.0 0.00 0.00 0.00 81 1012.8
20260509120136 61 91 10.0 12.0 0.00 0.00 0.00 82 1012.8
20260509115636 61 96 10.0 12.0 0.00 0.00 0.00 82 1012.8
20260509115136 61 96 10.0 14.0 0.00 0.00 0.00 84 1012.9
20260509114636 61 101 10.0 14.0 0.00 0.00 0.00 84 1012.9
20260509114136 61 90 12.0 14.0 0.00 0.00 0.00 83 1012.9
20260509113636 61 93 12.0 14.0 0.00 0.00 0.00 82 1012.8
20260509113140 61 84 11.0 14.0 0.00 0.00 0.00 82 1012.9
20260509113136 61 82 11.0 14.0 0.00 0.00 0.00 82 1012.8
20260509112743 61 74 11.0 14.0 0.00 0.00 0.00 83 1012.8
20260509112241 60 92 10.0 13.0 0.00 0.00 0.00 84 1012.8
20260509111134 60 89 10.0 13.0 0.00 0.00 0.00 85 1012.8
20260509110634 60 71 10.0 13.0 0.00 0.00 0.00 85 1012.9
20260509110134 61 76 11.0 13.0 0.00 0.00 0.00 84 1012.9
20260509105634 61 101 11.0 13.0 0.00 0.00 0.00 83 1012.9
20260509105134 61 105 11.0 13.0 0.00 0.00 0.00 82 1012.9
20260509104634 61 103 11.0 13.0 0.00 0.00 0.00 83 1013.0
20260509104134 61 113 12.0 14.0 0.00 0.00 0.00 83 1012.9
20260509103634 61 101 12.0 14.0 0.00 0.00 0.00 83 1013.0
20260509103132 60 103 11.0 13.0 0.00 0.00 0.00 86 1013.0
20260509102632 60 108 11.0 13.0 0.00 0.00 0.00 86 1013.0
20260509102132 60 109 12.0 13.0 0.00 0.00 0.00 83 1013.0
20260509101632 61 106 11.0 13.0 0.00 0.00 0.00 82 1013.0
20260509101132 61 116 11.0 12.0 0.00 0.00 0.00 82 1013.0
20260509100632 61 115 10.0 12.0 0.00 0.00 0.00 82 1013.0
20260509100131 61 99 9.0 11.0 0.00 0.00 0.00 82 1013.1